Simultaneous Nadir Overpasses (SNOs) Predictions

Prediction of SNOs between METOP-B and TERRA Satellite Orbit:

Table of predicted SNOs for the next 14.0 days since TLE Epoch: 10/28/2022
Index Date (METOP-B) Time (METOP-B) Lat,Lon (METOP-B) SZA (METOP-B ) Date (TERRA) Time (TERRA) Lat,Lon (TERRA) SZA (TERRA ) Distance(km) Time Diff (sec)
1 10/29/2022 05:30:48 81.03, 134.73 96.63 10/29/2022 05:31:32 81.03, 134.72 96.65 0.54 44
2 10/29/2022 06:21:28 -81.04, -57.50 83.31 10/29/2022 06:20:55 -81.04, -57.48 83.32 0.41 33
3 10/31/2022 21:42:28 81.03,-108.20 97.50 10/31/2022 21:43:19 81.03,-108.31 97.51 1.87 51
4 10/31/2022 22:33:08 -81.04, 59.59 82.43 10/31/2022 22:32:42 -81.04, 59.54 82.45 0.97 26
5 11/03/2022 13:54:09 81.01, 8.46 98.28 11/03/2022 13:55:06 81.01, 8.53 98.32 1.34 57
6 11/03/2022 14:44:49 -81.03, 176.27 81.65 11/03/2022 14:44:29 -81.03, 176.43 81.64 2.80 20
7 11/06/2022 06:05:48 81.00, 125.44 99.08 11/06/2022 06:06:51 81.01, 125.59 99.13 2.85 63
8 11/06/2022 06:56:27 -81.04, -66.37 80.80 11/06/2022 06:56:14 -81.03, -66.47 80.82 1.80 13
9 11/08/2022 22:17:28 81.00,-117.62 99.84 11/08/2022 22:18:37 81.01,-117.48 99.89 2.63 69
10 11/08/2022 23:08:07 -81.03, 50.58 80.04 11/08/2022 23:08:00 -81.03, 50.50 80.06 1.49 7
11 11/11/2022 14:30:01 79.69, -18.00 97.98 11/11/2022 14:31:14 79.26, -15.93 97.76 63.62 73



Historial Predications of SNOs between METOP-B and TERRA
